Location: Mentone
(34.5413°N, 85.5351°W)
Time: 01:47:40
(UTC-05:00)

Cosmos 2026 Rocket - Visible Passes

Search period start: 01 November 2014 00:00
Search period end: 10 November 2014 23:00
Orbit: 941 x 1001 km, 82.9° (Epoch: 31 October)

Date Brightness Start Highest point End Pass type
(mag) Time Alt. Az. Time Alt. Az. Time Alt. Az.
01 Nov 5.9 04:24:33 10° NNE 04:29:48 27° ENE 04:34:57 10° SE visible
01 Nov 4.5 06:09:26 10° NNW 06:15:05 37° W 06:20:38 10° SSW visible
01 Nov 6.8 19:37:15 10° WSW 19:40:30 14° WNW 19:43:46 10° NW visible
02 Nov 4.8 03:47:59 10° N 03:54:03 50° E 03:59:59 10° SSE visible
02 Nov 5.2 05:34:31 10° NW 05:38:47 20° W 05:43:01 10° SW visible
02 Nov 4.7 17:12:24 10° SSW 17:18:39 62° W 17:24:59 10° N visible
03 Nov 6.8 02:30:34 10° NE 02:32:02 11° ENE 02:33:31 10° E visible
03 Nov 3.9 04:11:51 10° N 04:18:08 88° W 04:24:17 10° S visible
03 Nov 5.8 17:37:11 10° SW 17:42:51 34° WNW 17:48:34 10° NNW visible
04 Nov 6.1 02:51:56 10° NNE 02:56:33 21° ENE 03:01:06 10° ESE visible
04 Nov 4.1 04:36:07 10° NNW 04:42:04 47° W 04:47:53 10° SSW visible
04 Nov 6.7 18:02:57 10° WSW 18:07:13 19° WNW 18:11:31 10° NNW visible
05 Nov 5.2 03:15:05 10° N 03:20:53 39° ENE 03:26:33 10° SSE visible
05 Nov 4.8 05:00:54 10° NNW 05:05:50 25° W 05:10:42 10° SW visible
06 Nov 4.1 03:38:47 10° N 03:45:01 73° E 03:51:07 10° SSE visible
06 Nov 5.5 05:26:53 10° NW 05:29:27 13° W 05:32:00 10° WSW visible
06 Nov 5.4 17:03:41 10° SSW 17:09:41 43° W 17:15:43 10° N visible
07 Nov 6.4 02:22:19 16° ENE 02:23:17 16° ENE 02:27:00 10° ESE visible
07 Nov 3.9 04:07:13 44° NW 04:09:01 61° W 04:15:00 10° S visible
07 Nov 6.4 17:29:00 10° SW 17:33:58 24° WNW 17:38:59 10° NNW visible
08 Nov 5.7 02:49:33 26° ESE 02:49:33 26° ESE 02:52:58 10° SE visible
08 Nov 4.8 04:34:17 29° WSW 04:34:17 29° WSW 04:38:10 10° SSW visible
08 Nov 6.9 17:55:55 10° W 17:58:27 12° WNW 18:01:00 10° NW visible
09 Nov 5.6 03:15:37 24° SSE 03:15:37 24° SSE 03:17:51 10° SSE visible
10 Nov 6.0 03:41:14 14° S 03:41:14 14° S 03:42:01 10° S visible
